Regional Weather Roundup
Issued by NWS Albany, NY

Home | Current Version | Previous Version | Text Only | Print | Product List | Glossary On
Versions: 1 2 3 4 5 6 7 8 9 10 11 12 13 14 15 16 17 18 19 20 21 22 23 24 25 26 27 28 29 30 31 32 33 34 35 36 37 38 39 40 41 42 43 44 45 46 47 48 49 50
000
ASUS41 KALY 310310
RWRALY

NEW YORK STATE HOURLY WEATHER ROUNDUP
NATIONAL WEATHER SERVICE ALBANY NY
1100 PM EDT SUN AUG 30 2015

NOTE: "FAIR" INDICATES FEW OR NO CLOUDS BELOW 12,000 FEET WITH NO
SIGNIFICANT WEATHER AND/OR NO OBSTRUCTIONS TO VISIBILITY.

NYZ032-033-038>043-046>054-057>066-NYZ062>081-310400-
EAST


CITY           SKY/WX    TMP DP  RH WIND       PRES   REMARKS
ALBANY         MOCLDY    72  65  78 CALM      30.02F
GLENS FALLS    PTCLDY    65  62  90 CALM      30.01F
POUGHKEEPSIE   CLEAR     70  68  93 CALM      30.02S FOG
NEWBURGH       PTCLDY    72  68  88 CALM      30.05
MONTGOMERY     PTCLDY    68  66  93 CALM      30.04S
WHITE PLAINS   PTCLDY    71  68  90 CALM      30.04S
ISLIP          CLOUDY    77  69  76 SW13      30.02F
NEW YORK CITY  CLOUDY    78  69  73 SW6       30.03R
CENTRAL PARK   CLOUDY    75  70  84 W5        30.07S
$$

NYZ005>009-017-018-044>046-055-056-310400-
CENTRAL


CITY           SKY/WX    TMP DP  RH WIND       PRES   REMARKS
FULTON         PTCLDY    63  61  93 CALM      30.03F FOG
SYRACUSE       PTCLDY    67  65  93 SE3       30.03S
ROME           CLEAR     64  62  93 E5        30.05S
ELMIRA         PTCLDY    66  66 100 CALM      30.06F
BINGHAMTON     MOCLDY    68  65  90 MISG      30.09F
MONTICELLO     MOCLDY    68  66  94 CALM      30.10S
$$

NYZ026>034-041>043-310400-
NORTH


CITY           SKY/WX    TMP DP  RH WIND       PRES   REMARKS
WATERTOWN      PTCLDY    64  60  87 S5        30.01F
FORT DRUM      NOT AVBL
MASSENA        CLEAR     64  60  87 SW6       29.99F
SARANAC LAKE   CLEAR     60  57  89 SW5       30.04F
PLATTSBURGH    PTCLDY    66  63  90 CALM      29.98F
$$

NYZ001>004-010>016-019>021-310400-
WEST


CITY           SKY/WX    TMP DP  RH WIND       PRES   REMARKS
NIAGARA FALLS  PTCLDY    69  65  86 S7        30.03S
BUFFALO        PTCLDY    69  64  84 S7        30.04F
DUNKIRK        PTCLDY    69  65  86 S5        30.05S
JAMESTOWN      CLEAR     64  63  94 S3        30.10F
WELLSVILLE     CLEAR     68  64  87 W6        30.14F
ROCHESTER      PTCLDY    67  62  84 CALM      30.04F
PENN YAN       CLEAR     67  64  90 S5        30.06F
$$

             KEY
       WCI = WIND CHILL INDEX
       VSB = VISIBILITY
       HX  = HEAT INDEX
$$


USA.gov is the U.S. government's official web portal to all federal, state and local government web resources and services.